Location: Arroyo de Valdeoliva
(40.1604°N, 4.9878°W)
Time: 18:12:25
(UTC+00:00)

CZ-2D R/B - Pass Details

Date: 11 December 2025
Orbit: 524 x 598 km, 98.0° (Epoch: 15 January)

Event Time Altitude Azimuth Distance (km) Brightness Sun altitude
Rises 19:04:13 0° 179° (S) 2,826 7.1 -24.0°
Reaches altitude 10° 19:06:27 10° 185° (S) 1,926 6.2 -24.4°
Maximum altitude 19:10:30 47° 260° (W) 785 4.4 -25.2°
Drops below altitude 10° 19:14:32 10° 335° (NNW) 1,918 6.2 -26.0°
Sets 19:16:45 0° 342° (NNW) 2,813 7.1 -26.4°
